Find OneWeb SL0682

NORAD ID: 56718 Int'l Des: 2023-068 Owner: ONEWEBN Country: UK Constellation: oneweb operational
LEOCIRCULARPOLARONEWEB_TYPE

实时位置

正在加载3D地球...

关于 OneWeb SL0682

正在加载描述...

即将过境

Passes for default location (London). Set your location on the main map for personalized predictions.

高度历史

Loading altitude history...

两行轨道根数

1 56718U 23068J 26110.15201159 -.00000029 00000-0 -11223-3 0 9995
2 56718 87.8952 270.7676 0001325 107.3770 252.7505 13.15549459141827
Epoch: Apr 20, 2026 • Age: 12 hours

当前状态

高度 1211.5 km
速度 7.25 km/s
星下点 62.38°N, 10°E
发射日期 May 20, 2023
运行时间 2.9 years
类型 internet

技术详情

分类 Payload
质量 148.00 kg
干质量 140.00 kg
总质量 148.00 kg
长度 1.30 m
直径 1.00 m
跨度 5.00 m
形状 Trapezoid+2 pan
制造商 ONEWUS
平台类型 ARROW
阶段状态 In Orbit
所有者/国家 ONEWEBN/UK

Most Searched